Torna al catalogo

CZ-5 R/B

AttivoHEO
NORAD 59021·ROCKET BODY·🇨🇳 China

Lanciato Feb 23, 2024 da Wenchang Space Launch Site

Loading…

Prossimi Passaggi (prossime 24 ore)

TLE

AggiornatoSource: Space-Track

Epoca: Sep 14, 2026, 01:43 UTC

1 59021U 24037B   26257.07192719  .00007119  00000-0  13160-2 0  9992
2 59021  16.3328 278.2979 7029860 270.2828  16.4273  2.61102038 23716

Traccia CZ-5 R/B in tempo reale con AllMySat

Download on the App Store